Glendale Luke AFB, AZ

2:33 PM MST on December 08, 2019 (GMT -0700)
Luke Air Force Base

Weather History for KLUF - November, 2019

Change the Weather History Date:

Friday, November 15, 2019

  Actual Average Record
Temperature  
Mean Temperature 67 °F -  
Max Temperature 82 °F 76 °F 89 °F (1967)
Min Temperature 52 °F 43 °F 27 °F (1929)
Cooling Degree Days 2    
Growing Degree Days 17 (Base 50)    
Moisture  
Dew Point 36 °F    
Average Humidity 36    
Maximum Humidity 60    
Minimum Humidity 16    
Precipitation  
Precipitation 0.00 in - - ()
Sea Level Pressure  
Sea Level Pressure 30.00 in    
Wind  
Wind Speed 6 mph (North)    
Max Wind Speed 10 mph    
Max Gust Speed -    
Visibility 10 miles    
Events      
Averages and records for this station are not official NWS values.
T = Trace of Precipitation, MM = Missing Value Source: NWS Daily Summary

Daily Weather History Graph

Daily Weather History Graph

Search for Another Location

Airport or City:

Astronomy

Nov. 15, 2019 Rise Set
Actual Time 7:00 AM MST 5:26 PM MST
Civil Twilight 6:34 AM MST 5:53 PM MST
Nautical Twilight 6:04 AM MST 6:23 PM MST
Astronomical Twilight 5:35 AM MST 6:52 PM MST
Moon 8:10 PM MST (11/15) 9:56 AM MST (11/15)
Length of Visible Light 11h 18m
Length of Day
10h 25m
Waning Gibbous, 89% of the Moon is Illuminated
Nov 15
Waning Gibbous
Nov 19
Last Quarter
Nov 26
New
Dec 3
First Quarter
Dec 11
Full

Hourly Weather History & Observations

Time (MST) Temp. Dew Point Humidity Pressure Visibility Wind Dir Wind Speed Gust Speed Precip Events Conditions
12:58 AM 56.7 °F 36.7 °F 47% 30.06 in 10.0 mi NNE 6.9 mph - N/A   Clear
1:58 AM 55.8 °F 36.3 °F 48% 30.05 in 10.0 mi NNE 5.8 mph - N/A   Clear
2:58 AM 54.5 °F 37.8 °F 53% 30.06 in 10.0 mi NNE 5.8 mph - N/A   Clear
3:58 AM 52.5 °F 36.3 °F 54% 30.05 in 10.0 mi NNW 4.6 mph - N/A   Clear
4:58 AM 52.3 °F 36.1 °F 54% 30.05 in 10.0 mi North 4.6 mph - N/A   Clear
6:58 AM 52.0 °F 36.9 °F 56% 30.08 in 10.0 mi NE 4.6 mph - N/A   Clear
7:58 AM 52.7 °F 39.2 °F 60% 30.09 in 10.0 mi North 6.9 mph - N/A   Clear
8:58 AM 62.8 °F 39.9 °F 43% 30.09 in 10.0 mi NNW 5.8 mph - N/A   Clear
9:58 AM 68.4 °F 36.5 °F 31% 30.09 in 10.0 mi NNE 3.5 mph - N/A   Clear
10:58 AM 71.8 °F 36.0 °F 27% 30.08 in 10.0 mi NE 5.8 mph - N/A   Clear
11:58 AM 76.3 °F 35.8 °F 23% 30.04 in 10.0 mi NE 4.6 mph - N/A   Clear
12:58 PM 79.2 °F 33.3 °F 19% 30.01 in 10.0 mi Calm Calm - N/A   Clear
1:58 PM 81.0 °F 32.0 °F 17% 29.97 in 10.0 mi East 4.6 mph - N/A   Clear
2:58 PM 82.4 °F 31.6 °F 16% 29.95 in 10.0 mi SE 4.6 mph - N/A   Clear
3:58 PM 81.3 °F 30.7 °F 16% 29.93 in 10.0 mi ENE 3.5 mph - N/A   Clear
4:58 PM 79.0 °F 36.9 °F 22% 29.93 in 10.0 mi WNW 3.5 mph - N/A   Clear
5:58 PM 74.1 °F 37.0 °F 26% 29.93 in 10.0 mi WNW 5.8 mph - N/A   Clear
6:58 PM 69.8 °F 38.7 °F 32% 29.94 in 10.0 mi WNW 5.8 mph - N/A   Clear
7:58 PM 65.1 °F 36.9 °F 35% 29.94 in 10.0 mi NNW 8.1 mph - N/A   Clear
8:58 PM 63.9 °F 38.5 °F 39% 29.94 in 10.0 mi North 4.6 mph - N/A   Clear
9:58 PM 61.0 °F 35.8 °F 39% 29.94 in 10.0 mi North 5.8 mph - N/A   Clear
10:58 PM 60.4 °F 35.4 °F 39% 29.94 in 10.0 mi NNW 10.4 mph - N/A   Partly Cloudy
11:58 PM 60.1 °F 35.6 °F 40% 29.93 in 10.0 mi North 6.9 mph - N/A   Clear